Temp
-10 -10 -10 -10 -10 -10 -10 -10 -10 -10 -11 -11 -12 -12 -13 -14 -14 -14 -14 -14 -14 -14 -14 -14 -14 -14 -15 -15 -15 -15 -15 -15 -15 -15 -15 -15 -15 -15 -15 -16 -16 -16
-11 -11 -10 -10 -10 -10 -10 -10 -10 -10 -11 -11 -12 -12 -13 -14 -14 -14 -14 -14 -14 -14 -14 -14 -14 -15 -15 -15 -15 -15 -15 -15 -15 -15 -15 -15 -15 -15 -16 -16 -16 -16
-11 -11 -11 -10 -10 -10 -10 -10 -10 -10 -11 -11 -12 -12 -13 -14 -14 -14 -14 -14 -14 -14 -14 -15 -15 -15 -15 -15 -15 -15 -15 -15 -15 -15 -15 -15 -16 -16 -16 -16 -16 -16
-11 -11 -11 -11 -10 -10 -10 -11 -10 -11 -11 -11 -12 -13 -13 -14 -14 -14 -14 -15 -15 -15 -15 -15 -15 -15 -15 -15 -15 -15 -15 -15 -15 -15 -15 -16 -16 -16 -16 -16 -16 -16
-11 -11 -11 -11 -11 -10 -10 -11 -11 -11 -11 -11 -12 -13 -13 -13 -14 -14 -15 -15 -15 -15 -15 -15 -15 -15 -15 -15 -15 -15 -15 -15 -15 -15 -15 -16 -16 -16 -16 -16 -16 -16
-10 -11 -11 -11 -11 -11 -11 -11 -11 -11 -11 -12 -12 -13 -13 -13 -14 -14 -15 -15 -15 -15 -15 -15 -15 -15 -15 -15 -15 -15 -15 -15 -15 -15 -15 -15 -16 -16 -16 -16 -16 -16
-10 -11 -12 -12 -12 -12 -11 -11 -12 -12 -12 -12 -12 -13 -13 -13 -14 -14 -15 -15 -15 -15 -15 -15 -15 -15 -15 -15 -15 -15 -15 -15 -15 -15 -15 -15 -16 -16 -16 -16 -16 -16
-10 -11 -12 -12 -12 -12 -12 -12 -12 -12 -12 -12 -12 -13 -13 -14 -14 -14 -15 -15 -15 -15 -15 -15 -15 -15 -15 -15 -15 -15 -15 -15 -15 -15 -15 -15 -15 -16 -16 -16 -16 -16
-10 -11 -12 -12 -13 -12 -12 -12 -12 -12 -12 -12 -12 -13 -13 -14 -14 -15 -15 -15 -15 -15 -16 -16 -16 -16 -16 -16 -16 -16 -16 -16 -16 -16 -16 -16 -16 -16 -16 -16 -16 -16
-10 -10 -11 -12 -13 -13 -13 -12 -12 -12 -12 -13 -13 -13 -14 -14 -14 -15 -15 -15 -15 -16 -16 -16 -16 -16 -16 -16 -16 -16 -16 -16 -16 -16 -16 -16 -16 -16 -16 -16 -16 -16
-10 -10 -11 -12 -13 -13 -13 -13 -13 -13 -13 -13 -13 -13 -14 -14 -15 -15 -15 -15 -15 -16 -16 -16 -16 -16 -17 -17 -17 -16 -16 -16 -16 -16 -16 -16 -16 -16 -16 -16 -16 -17
-10 -10 -11 -13 -13 -13 -13 -13 -13 -13 -13 -13 -14 -14 -14 -14 -15 -15 -15 -16 -16 -16 -16 -16 -16 -17 -17 -17 -17 -17 -17 -17 -17 -17 -16 -16 -16 -16 -16 -16 -16 -17
-10 -11 -12 -13 -14 -14 -14 -14 -14 -14 -14 -14 -14 -14 -14 -15 -15 -15 -16 -16 -16 -16 -16 -16 -17 -17 -17 -17 -17 -17 -17 -17 -17 -17 -17 -16 -17 -16 -16 -16 -17 -17
-11 -12 -12 -13 -14 -14 -14 -14 -14 -14 -14 -14 -14 -14 -15 -15 -15 -16 -16 -16 -16 -16 -16 -16 -17 -17 -17 -17 -17 -17 -18 -18 -17 -17 -17 -17 -17 -17 -17 -17 -17 -17
-12 -12 -13 -14 -14 -15 -15 -15 -15 -15 -14 -14 -15 -15 -15 -15 -16 -16 -16 -16 -16 -16 -17 -17 -17 -17 -17 -17 -18 -18 -18 -18 -18 -17 -17 -17 -17 -17 -17 -17 -17 -17
-12 -12 -13 -14 -15 -15 -16 -15 -15 -15 -15 -15 -15 -15 -16 -16 -16 -16 -17 -17 -17 -17 -17 -17 -17 -17 -17 -18 -18 -18 -18 -18 -18 -18 -17 -17 -17 -17 -17 -18 -18 -18
-12 -13 -14 -15 -15 -16 -16 -16 -16 -16 -15 -15 -15 -16 -16 -16 -16 -17 -17 -17 -17 -17 -17 -17 -17 -17 -18 -18 -18 -18 -18 -18 -18 -18 -18 -18 -18 -18 -18 -18 -18 -18
-12 -13 -14 -15 -16 -16 -17 -17 -16 -16 -16 -16 -16 -16 -17 -17 -17 -17 -17 -17 -17 -17 -17 -17 -17 -18 -18 -18 -19 -19 -19 -18 -18 -18 -18 -18 -18 -18 -18 -19 -19 -18
-12 -12 -13 -14 -16 -17 -17 -17 -17 -17 -16 -16 -16 -17 -17 -17 -17 -17 -17 -17 -17 -17 -18 -17 -18 -18 -18 -19 -19 -19 -19 -19 -18 -18 -18 -18 -18 -18 -19 -19 -19 -19
-13 -13 -13 -14 -15 -16 -17 -18 -17 -17 -16 -16 -16 -17 -17 -17 -18 -18 -18 -18 -18 -18 -18 -18 -18 -18 -18 -19 -19 -19 -19 -19 -19 -18 -18 -18 -18 -19 -19 -19 -19 -19
-13 -13 -13 -14 -14 -16 -17 -18 -18 -17 -17 -17 -17 -17 -17 -17 -18 -18 -18 -18 -18 -18 -18 -18 -18 -18 -18 -19 -19 -19 -20 -20 -19 -19 -18 -18 -19 -19 -20 -20 -20 -19
-14 -13 -13 -14 -15 -16 -18 -19 -19 -18 -17 -17 -17 -17 -17 -18 -18 -18 -18 -18 -18 -18 -18 -18 -18 -18 -18 -19 -19 -19 -20 -20 -19 -19 -19 -18 -19 -20 -20 -20 -20 -20
-15 -14 -14 -14 -14 -15 -18 -20 -19 -18 -18 -18 -18 -18 -18 -18 -18 -18 -18 -18 -18 -18 -18 -18 -18 -18 -19 -19 -19 -19 -20 -20 -19 -19 -19 -19 -19 -20 -20 -20 -20 -20
-16 -15 -15 -15 -15 -15 -17 -20 -19 -18 -19 -19 -18 -18 -18 -18 -19 -19 -19 -19 -19 -18 -18 -18 -18 -19 -19 -19 -19 -20 -20 -20 -20 -20 -19 -19 -19 -20 -20 -20 -20 -20
-16 -16 -15 -16 -15 -15 -17 -19 -19 -19 -19 -19 -18 -18 -19 -19 -19 -19 -19 -19 -19 -19 -18 -18 -18 -19 -19 -19 -19 -20 -20 -20 -20 -20 -19 -19 -19 -20 -20 -20 -20 -20
-16 -16 -16 -16 -16 -16 -18 -19 -19 -19 -19 -19 -19 -19 -19 -19 -19 -19 -19 -19 -19 -19 -19 -18 -19 -19 -19 -19 -19 -20 -20 -20 -20 -20 -20 -20 -20 -20 -20 -20 -20 -20
Height
2960 2957 2954 2951 2948 2945 2942 2939 2935 2932 2930 2928 2926 2924 2923 2922 2921 2921 2921 2921 2921 2921 2920 2920 2919 2919 2918 2918 2917 2916 2916 2915 2914 2914 2913 2912 2911 2910 2909 2907 2906 2905
2954 2952 2949 2946 2942 2940 2937 2934 2931 2928 2925 2923 2920 2919 2918 2917 2916 2915 2916 2916 2916 2916 2916 2915 2915 2915 2914 2914 2913 2913 2912 2912 2911 2910 2909 2909 2908 2907 2906 2904 2903 2902
2949 2946 2944 2940 2937 2934 2931 2929 2926 2923 2921 2918 2915 2914 2912 2911 2910 2910 2910 2910 2911 2911 2911 2911 2911 2910 2910 2910 2909 2909 2909 2908 2907 2907 2906 2905 2904 2904 2903 2901 2900 2899
2943 2941 2938 2935 2931 2928 2925 2923 2921 2918 2916 2913 2911 2908 2907 2905 2904 2904 2904 2904 2905 2906 2906 2906 2906 2906 2905 2905 2905 2905 2904 2904 2904 2903 2902 2902 2901 2900 2899 2898 2897 2896
2937 2935 2932 2929 2926 2923 2920 2917 2915 2913 2910 2908 2906 2903 2901 2900 2899 2898 2898 2898 2899 2900 2900 2900 2900 2901 2900 2900 2900 2900 2900 2900 2900 2899 2898 2898 2897 2896 2896 2895 2894 2893
2931 2929 2926 2923 2920 2917 2914 2911 2909 2907 2905 2903 2900 2898 2896 2895 2893 2892 2892 2892 2892 2893 2894 2894 2895 2895 2895 2895 2895 2895 2895 2895 2895 2895 2894 2894 2893 2893 2892 2891 2891 2890
2925 2922 2919 2916 2913 2911 2908 2905 2903 2901 2899 2897 2895 2893 2891 2889 2888 2887 2886 2886 2886 2887 2888 2888 2889 2889 2890 2890 2890 2890 2890 2890 2891 2890 2890 2890 2889 2889 2888 2888 2887 2886
2918 2915 2913 2910 2907 2904 2901 2899 2896 2894 2892 2891 2889 2887 2886 2884 2883 2882 2880 2880 2880 2880 2881 2882 2883 2883 2884 2884 2885 2885 2885 2885 2885 2886 2885 2885 2885 2885 2884 2884 2883 2883
2911 2909 2906 2903 2900 2898 2895 2892 2890 2888 2886 2884 2883 2881 2880 2878 2877 2876 2875 2874 2874 2874 2875 2876 2877 2877 2877 2878 2879 2879 2880 2880 2880 2880 2881 2880 2880 2880 2880 2879 2879 2879
2904 2902 2899 2896 2894 2891 2888 2886 2883 2881 2879 2878 2876 2875 2874 2873 2871 2870 2869 2868 2868 2868 2869 2869 2870 2871 2871 2872 2873 2873 2874 2874 2875 2875 2875 2875 2875 2875 2875 2875 2875 2875
2897 2895 2892 2889 2887 2884 2882 2879 2877 2875 2873 2871 2870 2868 2867 2866 2865 2864 2863 2863 2862 2863 2863 2863 2864 2864 2865 2866 2867 2867 2868 2869 2869 2869 2870 2870 2870 2871 2871 2871 2871 2870
2891 2888 2885 2882 2880 2877 2875 2873 2871 2868 2866 2865 2863 2862 2861 2860 2859 2858 2858 2857 2857 2857 2857 2857 2857 2858 2858 2859 2860 2861 2862 2863 2863 2864 2864 2865 2865 2866 2866 2866 2866 2866
2884 2881 2878 2875 2873 2870 2868 2866 2864 2862 2860 2858 2857 2855 2854 2854 2853 2852 2852 2851 2851 2851 2851 2851 2851 2852 2852 2853 2854 2855 2856 2856 2857 2858 2859 2859 2860 2861 2861 2861 2862 2862
2877 2873 2870 2868 2866 2864 2862 2860 2858 2856 2853 2852 2850 2849 2848 2847 2847 2846 2846 2845 2845 2845 2845 2845 2845 2846 2846 2847 2848 2849 2850 2850 2851 2852 2853 2854 2855 2855 2856 2857 2857 2857
2869 2866 2863 2860 2858 2857 2856 2854 2852 2849 2847 2845 2844 2843 2842 2841 2840 2840 2839 2839 2839 2839 2839 2839 2839 2840 2841 2841 2842 2843 2843 2843 2844 2846 2847 2848 2849 2850 2851 2852 2852 2852
2861 2858 2855 2853 2851 2850 2849 2847 2845 2843 2841 2839 2837 2836 2836 2835 2834 2833 2833 2833 2833 2833 2833 2833 2834 2835 2835 2835 2836 2836 2836 2837 2838 2840 2841 2843 2844 2845 2846 2847 2847 2847
2853 2849 2847 2845 2844 2843 2842 2840 2838 2836 2834 2833 2831 2830 2829 2828 2828 2827 2827 2827 2827 2827 2827 2828 2829 2829 2829 2829 2829 2829 2830 2831 2833 2834 2836 2837 2838 2840 2841 2842 2842 2842
2845 2841 2839 2837 2836 2836 2835 2833 2831 2829 2828 2826 2825 2824 2823 2822 2822 2821 2821 2821 2821 2821 2822 2822 2823 2823 2823 2823 2823 2823 2824 2825 2827 2828 2830 2831 2833 2835 2836 2837 2837 2837
2837 2834 2831 2829 2828 2828 2827 2825 2824 2823 2822 2820 2818 2817 2817 2816 2816 2816 2816 2816 2816 2816 2816 2817 2818 2817 2817 2817 2818 2818 2818 2819 2821 2823 2824 2826 2828 2829 2831 2832 2832 2833
2830 2826 2824 2822 2820 2820 2819 2817 2816 2816 2815 2813 2812 2811 2810 2810 2810 2810 2810 2810 2810 2810 2811 2811 2812 2812 2811 2811 2812 2812 2813 2813 2815 2818 2819 2821 2823 2824 2826 2826 2827 2828
2822 2819 2816 2814 2813 2811 2810 2809 2809 2809 2808 2807 2805 2804 2804 2804 2804 2804 2805 2805 2804 2805 2805 2806 2807 2806 2805 2806 2806 2807 2807 2808 2810 2812 2814 2816 2818 2819 2820 2821 2822 2824
2815 2812 2809 2807 2805 2803 2801 2801 2802 2802 2802 2800 2798 2798 2798 2798 2798 2798 2798 2799 2799 2799 2800 2801 2801 2800 2800 2800 2801 2802 2802 2803 2805 2807 2809 2811 2813 2814 2815 2816 2818 2819
2808 2805 2802 2799 2797 2795 2793 2794 2795 2796 2795 2794 2792 2791 2792 2792 2792 2792 2793 2793 2794 2794 2794 2795 2796 2795 2794 2795 2796 2796 2797 2798 2800 2803 2804 2806 2808 2810 2810 2812 2814 2815
2802 2798 2796 2793 2790 2787 2786 2787 2789 2789 2788 2787 2786 2786 2786 2786 2786 2787 2787 2788 2788 2788 2789 2790 2790 2789 2789 2790 2791 2791 2792 2794 2796 2798 2799 2801 2803 2804 2805 2807 2810 2812
2795 2792 2789 2786 2783 2781 2779 2780 2781 2782 2781 2781 2780 2780 2780 2780 2780 2781 2782 2783 2783 2783 2784 2784 2785 2784 2784 2785 2786 2786 2788 2789 2791 2793 2795 2796 2798 2799 2801 2804 2806 2808
2788 2785 2782 2779 2777 2774 2773 2773 2774 2775 2775 2775 2775 2775 2775 2775 2775 2776 2777 2778 2778 2779 2779 2780 2780 2779 2779 2780 2781 2782 2783 2785 2787 2788 2790 2792 2793 2794 2797 2800 2802 2804
Wind_Speed
45 44 44 44 45 45 43 41 39 38 37 36 35 34 34 35 35 35 34 32 30 28 27 26 26 25 24 23 23 23 23 23 23 23 24 24 24 25 25 25 27 27
46 45 44 44 44 44 44 42 40 38 37 36 36 34 34 35 36 36 36 34 32 30 28 27 27 27 26 25 24 24 24 23 24 24 24 25 25 25 25 26 27 28
46 45 45 44 43 43 43 43 41 39 37 36 36 35 34 35 36 37 37 36 35 32 30 29 28 28 27 27 26 25 25 24 25 25 25 25 26 26 26 27 27 28
46 45 46 45 44 43 43 43 41 39 38 37 36 35 35 35 36 38 38 38 37 35 33 31 29 29 28 28 27 26 26 25 25 26 26 26 26 27 27 27 27 28
46 46 46 46 44 42 42 42 42 41 39 37 37 36 36 36 36 38 39 39 39 38 36 34 32 31 30 29 28 28 27 26 26 26 26 26 26 27 27 27 27 28
47 46 46 46 44 42 42 42 42 42 40 38 37 37 36 36 37 38 39 40 41 40 39 37 35 33 32 31 30 30 29 28 27 27 27 27 27 27 27 27 27 28
48 46 46 46 44 43 42 41 41 42 41 39 38 37 36 36 37 37 39 40 41 41 41 40 38 37 35 34 32 32 32 31 30 29 28 28 28 28 27 27 27 27
48 47 46 45 44 43 42 42 41 41 41 41 39 37 37 36 36 37 38 40 41 42 42 41 41 39 38 37 35 34 34 33 32 31 30 30 29 29 28 28 27 27
48 47 45 45 44 44 43 42 42 41 41 41 40 38 37 36 36 36 37 39 40 41 42 42 42 41 41 39 38 37 36 36 35 33 32 32 31 30 30 29 28 28
48 46 44 44 44 44 44 43 42 41 41 41 40 39 37 36 36 36 36 38 39 40 41 42 43 43 42 41 40 39 38 38 37 36 34 33 33 32 31 30 30 28
48 46 44 43 43 45 45 43 42 42 41 41 41 40 38 37 36 35 36 37 37 39 40 42 43 43 43 42 41 41 40 39 38 37 36 35 34 34 33 31 31 30
49 47 43 41 43 45 45 44 43 42 41 41 41 41 39 38 36 35 35 36 36 37 39 41 42 43 44 43 42 42 41 41 40 39 38 37 36 35 34 32 31 31
49 47 43 40 42 45 45 44 43 42 41 41 41 41 40 38 36 35 34 35 35 36 38 39 41 42 43 43 43 42 42 42 41 40 39 38 37 36 34 32 31 32
49 48 43 40 42 44 45 44 43 42 42 42 41 41 40 39 37 36 34 34 34 35 36 38 40 40 41 42 42 42 42 43 42 41 40 39 38 37 35 32 32 32
49 48 44 41 41 43 44 43 43 42 42 42 42 41 40 39 37 36 34 33 33 34 35 36 38 39 40 40 40 41 42 43 43 42 41 40 39 37 34 32 32 32
49 48 45 42 41 42 43 43 42 43 43 42 42 41 40 39 37 36 34 32 32 33 34 35 36 37 38 39 39 40 41 42 42 41 41 40 38 37 34 32 32 32
49 49 45 41 41 41 42 42 42 43 43 42 42 41 39 38 37 36 34 32 31 32 32 33 34 35 37 38 38 39 39 40 40 40 40 39 38 36 33 31 32 33
48 50 46 41 39 40 41 41 42 42 42 42 42 40 39 38 37 36 34 32 31 31 31 32 32 34 36 37 38 38 38 38 37 38 39 38 37 35 32 31 32 33
47 50 49 43 38 39 41 41 41 41 41 42 42 40 39 38 37 35 33 31 31 30 30 30 31 32 35 36 37 37 37 37 36 35 36 36 36 34 32 31 33 32
47 49 49 45 40 38 40 42 40 38 39 41 41 40 39 38 36 34 32 31 30 30 29 29 29 32 33 35 36 36 36 36 35 34 34 34 34 33 32 32 33 31
48 48 47 44 41 39 41 42 39 36 37 39 40 39 38 38 36 34 32 30 30 29 28 27 28 31 33 33 34 35 36 36 34 33 32 32 32 32 32 33 33 30
47 48 46 44 41 40 41 40 36 34 36 38 39 38 37 37 35 33 32 30 29 29 27 26 27 30 32 32 33 34 35 35 34 32 31 31 30 30 32 33 32 30
47 47 47 46 44 43 42 38 34 32 34 37 38 38 36 35 34 33 32 30 28 28 27 26 27 29 31 31 32 33 34 34 33 31 31 30 29 29 32 33 31 29
47 46 46 47 47 47 43 35 31 31 33 35 37 37 35 34 33 32 31 29 28 28 27 26 26 28 30 30 30 32 32 32 32 31 30 29 28 30 32 32 30 28
47 46 46 46 47 48 43 34 30 31 32 34 35 35 34 33 32 31 30 28 28 28 27 25 25 27 29 28 29 30 31 31 31 30 30 29 29 31 32 31 28 26
47 46 45 44 45 47 43 35 30 29 30 32 34 34 33 32 31 30 28 27 27 27 26 25 25 26 28 27 27 29 29 30 30 30 29 28 29 31 32 29 26 24
Wind_Direction
312 313 313 312 310 308 308 307 305 302 300 297 293 288 281 276 275 274 274 274 274 274 274 274 274 274 274 273 274 276 277 278 279 280 281 283 285 287 289 292 293 295
310 311 312 311 309 307 306 306 304 302 299 296 293 288 282 276 273 272 271 271 271 271 271 271 271 271 272 271 271 272 273 275 276 278 279 281 283 285 287 289 292 294
307 309 310 309 308 306 304 304 303 301 298 295 292 289 283 276 272 270 269 268 268 268 267 268 268 269 269 270 270 270 271 272 274 276 278 280 281 283 285 287 289 292
304 306 307 307 308 306 303 302 301 299 297 294 292 288 283 278 272 269 267 266 266 265 265 265 265 267 267 268 269 270 270 271 272 274 276 278 281 282 284 286 287 289
301 303 305 306 307 306 303 301 300 298 296 293 290 287 283 279 273 269 266 265 264 263 263 263 263 264 265 267 268 269 270 271 271 273 276 277 279 281 283 284 286 287
298 300 301 303 305 305 302 300 299 297 295 292 289 287 284 280 274 270 266 264 263 262 261 261 262 262 263 264 266 267 269 270 271 273 275 277 278 280 282 283 284 285
298 298 298 301 303 303 301 299 298 296 294 291 288 287 285 281 276 271 267 264 263 262 261 260 260 261 261 262 263 265 267 269 271 272 273 275 277 279 281 282 283 284
297 296 296 298 301 302 301 298 296 295 293 291 288 286 284 281 277 273 268 265 263 262 261 260 259 259 260 261 261 263 265 267 269 271 272 274 276 278 280 280 282 284
295 295 294 296 298 300 300 297 295 294 292 290 288 285 283 281 278 274 270 266 264 262 261 260 259 259 258 259 260 261 263 265 267 268 270 273 275 277 279 280 281 282
296 295 293 293 296 298 297 297 294 293 292 290 287 285 283 281 279 275 271 268 265 263 261 260 259 258 258 258 258 259 260 262 265 266 268 271 273 275 277 279 280 280
296 294 292 292 295 295 295 296 294 292 291 289 286 284 282 280 278 275 272 269 266 264 262 260 259 258 257 257 257 257 259 260 262 264 266 267 270 272 275 276 277 278
296 294 292 291 292 293 294 295 294 292 291 289 286 283 281 280 278 276 273 271 268 265 262 261 260 259 258 257 256 256 257 258 259 260 262 264 266 269 271 273 275 275
297 294 291 289 290 291 292 294 294 293 291 289 286 283 281 280 279 277 274 271 269 267 264 261 260 259 259 257 256 256 256 257 257 257 259 261 263 265 268 270 271 272
296 293 289 287 287 289 291 293 294 294 291 288 286 283 281 280 278 277 275 272 270 268 266 264 261 260 260 259 257 256 255 254 255 255 256 257 260 262 264 267 268 269
294 291 288 285 285 288 291 292 294 295 293 289 286 283 280 278 278 278 276 273 271 269 268 265 263 261 261 260 258 256 254 253 253 254 254 255 257 259 262 264 265 266
295 291 287 284 285 288 290 292 294 295 294 291 286 283 280 278 277 276 276 274 272 270 269 267 265 263 261 260 258 256 254 252 252 252 253 254 255 257 259 261 262 263
298 292 286 283 285 287 290 291 293 294 294 292 287 283 279 277 275 275 276 275 273 271 269 269 267 264 261 260 258 257 255 253 252 252 252 253 253 255 256 257 259 260
299 294 287 282 282 286 289 290 290 292 294 293 288 283 279 276 275 275 276 275 274 272 270 269 268 265 262 259 258 257 256 255 252 251 251 251 252 253 253 254 256 258
299 296 290 283 280 283 286 287 287 290 293 293 289 284 279 276 275 275 276 276 275 273 270 268 267 265 262 259 257 257 256 256 253 250 250 250 250 251 250 251 254 256
297 297 294 287 280 278 281 284 285 287 291 292 289 284 279 276 275 275 276 276 275 273 270 268 266 264 261 258 256 256 256 256 254 251 249 248 248 248 248 249 252 255
297 296 295 289 281 276 277 281 282 284 289 291 289 284 279 276 275 275 275 275 274 273 271 268 265 264 261 257 255 255 255 255 254 252 250 247 246 245 245 247 250 253
300 298 295 289 280 272 273 279 281 282 288 290 287 282 279 276 275 274 273 273 273 272 271 268 265 263 261 257 255 253 253 254 253 252 250 248 245 241 241 244 248 251
305 303 298 290 281 272 271 276 279 280 286 290 286 281 278 275 274 273 272 273 273 272 270 267 263 261 260 257 254 253 253 253 253 252 250 248 244 239 239 242 245 248
308 307 302 294 285 277 272 272 275 278 284 287 284 281 278 273 271 271 271 272 272 271 269 266 262 260 259 257 254 252 252 253 253 251 249 247 243 239 238 240 242 244
309 309 305 298 291 282 274 270 270 274 281 285 284 281 277 271 269 270 270 271 271 269 269 266 262 260 259 256 253 251 251 252 252 250 248 246 243 239 239 239 239 241
309 309 307 302 295 285 277 271 266 269 279 284 283 280 275 270 268 268 268 269 269 268 268 266 262 259 257 255 251 250 250 250 250 249 247 245 242 241 240 238 236 236